| time (UTC) | temp F | wind direction | speed MPH | gust MPH | rain 1hr in | rain 24hr in | rain mn in | humidity % | barometer mb |
| 20260902070516 | 78 | 105 | 0.0 | 1.0 | 0.00 | 0.00 | 0.00 | 68 | 1016.4 |
| 20260902070014 | 78 | 105 | 0.0 | 2.0 | 0.00 | 0.00 | 0.00 | 68 | 1016.4 |
| 20260902065514 | 78 | 105 | 0.0 | 3.0 | 0.00 | 0.00 | 0.00 | 68 | 1016.4 |
| 20260902065014 | 78 | 105 | 0.0 | 3.0 | 0.00 | 0.00 | 0.00 | 68 | 1016.4 |
| 20260902064513 | 78 | 105 | 0.0 | 3.0 | 0.00 | 0.00 | 0.00 | 67 | 1016.4 |
| 20260902064012 | 78 | 105 | 0.0 | 2.0 | 0.00 | 0.00 | 0.00 | 67 | 1016.4 |
| 20260902063511 | 78 | 105 | 0.0 | 2.0 | 0.00 | 0.00 | 0.00 | 67 | 1016.4 |
| 20260902063017 | 79 | 105 | 1.0 | 2.0 | 0.00 | 0.00 | 0.00 | 67 | 1016.4 |
| 20260902062510 | 79 | 105 | 0.0 | 3.0 | 0.00 | 0.00 | 0.00 | 67 | 1016.5 |
| 20260902062008 | 79 | 105 | 0.0 | 3.0 | 0.00 | 0.00 | 0.00 | 66 | 1016.5 |
| 20260902061523 | 79 | 105 | 1.0 | 2.0 | 0.00 | 0.00 | 0.00 | 66 | 1016.5 |
| 20260902061007 | 79 | 105 | 0.0 | 2.0 | 0.00 | 0.00 | 0.00 | 66 | 1016.3 |
| 20260902060506 | 79 | 105 | 1.0 | 2.0 | 0.00 | 0.00 | 0.00 | 66 | 1016.4 |
| 20260902060014 | 79 | 105 | 1.0 | 2.0 | 0.00 | 0.00 | 0.00 | 66 | 1016.3 |
| 20260902055505 | 80 | 105 | 0.0 | 3.0 | 0.00 | 0.00 | 0.00 | 65 | 1016.3 |
| 20260902055005 | 80 | 105 | 1.0 | 3.0 | 0.00 | 0.00 | 0.00 | 65 | 1016.3 |
| 20260902054507 | 80 | 105 | 1.0 | 3.0 | 0.00 | 0.00 | 0.00 | 65 | 1016.2 |
| 20260902054004 | 80 | 105 | 1.0 | 3.0 | 0.00 | 0.00 | 0.00 | 65 | 1016.1 |
| 20260902053505 | 80 | 105 | 0.0 | 2.0 | 0.00 | 0.00 | 0.00 | 65 | 1016.1 |
| 20260902053004 | 80 | 105 | 1.0 | 3.0 | 0.00 | 0.00 | 0.00 | 65 | 1016.2 |
| 20260902052502 | 80 | 105 | 1.0 | 3.0 | 0.00 | 0.00 | 0.00 | 65 | 1016.2 |
| 20260902052002 | 80 | 105 | 1.0 | 3.0 | 0.00 | 0.00 | 0.00 | 65 | 1016.2 |
| 20260902051501 | 80 | 105 | 1.0 | 3.0 | 0.00 | 0.00 | 0.00 | 65 | 1016.2 |
| 20260902051100 | 80 | 105 | 1.0 | 4.0 | 0.00 | 0.00 | 0.00 | 65 | 1016.1 |
| 20260902050601 | 80 | 105 | 2.0 | 7.0 | 0.00 | 0.00 | 0.00 | 66 | 1016.2 |
| 20260902050100 | 80 | 105 | 2.0 | 7.0 | 0.00 | 0.00 | 0.00 | 66 | 1016.3 |
| 20260902045559 | 80 | 105 | 1.0 | 4.0 | 0.00 | 0.00 | 0.00 | 66 | 1016.2 |
| 20260902045058 | 80 | 105 | 0.0 | 3.0 | 0.00 | 0.00 | 0.00 | 65 | 1016.2 |
| 20260902044601 | 80 | 105 | 0.0 | 3.0 | 0.00 | 0.00 | 0.00 | 65 | 1016.2 |
| 20260902044158 | 80 | 105 | 0.0 | 3.0 | 0.00 | 0.00 | 0.00 | 64 | 1016.2 |
| 20260902043556 | 80 | 105 | 1.0 | 3.0 | 0.00 | 0.00 | 0.00 | 64 | 1016.2 |
| 20260902043058 | 81 | 105 | 0.0 | 3.0 | 0.00 | 0.00 | 0.00 | 64 | 1016.1 |
| 20260902042600 | 81 | 105 | 0.0 | 2.0 | 0.00 | 0.00 | 0.00 | 64 | 1016.1 |
| 20260902042056 | 81 | 105 | 0.0 | 3.0 | 0.00 | 0.00 | 0.00 | 64 | 1016.1 |
| 20260902041557 | 81 | 105 | 1.0 | 3.0 | 0.00 | 0.00 | 0.00 | 64 | 1016.1 |
| 20260902041055 | 81 | 105 | 1.0 | 3.0 | 0.00 | 0.00 | 0.00 | 63 | 1016.0 |
| 20260902040556 | 81 | 105 | 0.0 | 3.0 | 0.00 | 0.00 | 0.00 | 63 | 1016.0 |
| 20260902040057 | 81 | 105 | 1.0 | 4.0 | 0.00 | 0.00 | 0.00 | 63 | 1015.9 |
| 20260902035555 | 81 | 105 | 1.0 | 7.0 | 0.00 | 0.00 | 0.00 | 63 | 1016.0 |
| 20260902035055 | 81 | 105 | 2.0 | 7.0 | 0.00 | 0.00 | 0.00 | 63 | 1016.0 |
| 20260902034605 | 81 | 105 | 2.0 | 7.0 | 0.00 | 0.00 | 0.00 | 63 | 1016.0 |
| 20260902034054 | 81 | 105 | 1.0 | 5.0 | 0.00 | 0.00 | 0.00 | 62 | 1015.9 |
| 20260902033553 | 81 | 105 | 1.0 | 5.0 | 0.00 | 0.00 | 0.00 | 62 | 1015.9 |
| 20260902033103 | 81 | 106 | 2.0 | 4.0 | 0.00 | 0.00 | 0.00 | 62 | 1015.8 |
| 20260902032555 | 81 | 106 | 2.0 | 4.0 | 0.00 | 0.00 | 0.00 | 62 | 1015.7 |
| 20260902032052 | 82 | 106 | 1.0 | 4.0 | 0.00 | 0.00 | 0.00 | 61 | 1015.6 |
| 20260902031552 | 82 | 106 | 1.0 | 4.0 | 0.00 | 0.00 | 0.00 | 61 | 1015.5 |
| 20260902031056 | 82 | 106 | 2.0 | 4.0 | 0.00 | 0.00 | 0.00 | 61 | 1015.5 |
| 20260902030553 | 82 | 106 | 1.0 | 3.0 | 0.00 | 0.00 | 0.00 | 61 | 1015.5 |
| 20260902030052 | 82 | 106 | 1.0 | 5.0 | 0.00 | 0.00 | 0.00 | 61 | 1015.3 |
| 20260902025552 | 82 | 106 | 2.0 | 7.0 | 0.00 | 0.00 | 0.00 | 61 | 1015.2 |
| 20260902025052 | 82 | 106 | 1.0 | 7.0 | 0.00 | 0.00 | 0.00 | 60 | 1015.2 |
| 20260902024552 | 83 | 106 | 2.0 | 3.0 | 0.00 | 0.00 | 0.00 | 60 | 1015.1 |
| 20260902024051 | 83 | 106 | 1.0 | 5.0 | 0.00 | 0.00 | 0.00 | 60 | 1015.0 |
| 20260902023550 | 83 | 106 | 3.0 | 5.0 | 0.00 | 0.00 | 0.00 | 59 | 1014.8 |
| 20260902023053 | 83 | 106 | 2.0 | 4.0 | 0.00 | 0.00 | 0.00 | 59 | 1014.8 |
| 20260902022551 | 83 | 106 | 2.0 | 4.0 | 0.00 | 0.00 | 0.00 | 58 | 1014.8 |
| 20260902022050 | 84 | 106 | 3.0 | 0.0 | 0.00 | 0.00 | 0.00 | 58 | 1014.7 |
| 20260902021550 | 84 | 106 | 2.0 | 4.0 | 0.00 | 0.00 | 0.00 | 58 | 1014.6 |
| 20260902021050 | 84 | 106 | 2.0 | 4.0 | 0.00 | 0.00 | 0.00 | 57 | 1014.5 |
| 20260902020550 | 84 | 106 | 1.0 | 4.0 | 0.00 | 0.00 | 0.00 | 57 | 1014.4 |
| 20260902020057 | 84 | 106 | 1.0 | 4.0 | 0.00 | 0.00 | 0.00 | 56 | 1014.4 |
| 20260902015549 | 85 | 106 | 2.0 | 4.0 | 0.00 | 0.00 | 0.00 | 56 | 1014.3 |
| 20260902015049 | 85 | 106 | 1.0 | 4.0 | 0.00 | 0.00 | 0.00 | 55 | 1014.2 |
| 20260902014551 | 85 | 106 | 1.0 | 4.0 | 0.00 | 0.00 | 0.00 | 55 | 1014.1 |
| 20260902014051 | 85 | 106 | 1.0 | 4.0 | 0.00 | 0.00 | 0.00 | 54 | 1014.1 |
| 20260902013548 | 86 | 106 | 1.0 | 5.0 | 0.00 | 0.00 | 0.00 | 54 | 1014.1 |
| 20260902013049 | 86 | 106 | 2.0 | 5.0 | 0.00 | 0.00 | 0.00 | 53 | 1014.1 |
| 20260902012547 | 86 | 106 | 2.0 | 5.0 | 0.00 | 0.00 | 0.00 | 52 | 1014.1 |
| 20260902012047 | 87 | 107 | 1.0 | 5.0 | 0.00 | 0.00 | 0.00 | 52 | 1014.1 |
| 20260902011547 | 87 | 107 | 2.0 | 4.0 | 0.00 | 0.00 | 0.00 | 51 | 1014.0 |
| 20260902011047 | 88 | 107 | 0.0 | 2.0 | 0.00 | 0.00 | 0.00 | 50 | 1013.8 |
| 20260902010548 | 88 | 107 | 0.0 | 0.0 | 0.00 | 0.00 | 0.00 | 49 | 1013.7 |
| 20260902010047 | 88 | 107 | 0.0 | 0.0 | 0.00 | 0.00 | 0.00 | 48 | 1013.8 |
| 20260902005547 | 89 | 107 | 0.0 | 0.0 | 0.00 | 0.00 | 0.00 | 48 | 1013.8 |
| 20260902005047 | 89 | 107 | 0.0 | 2.0 | 0.00 | 0.00 | 0.00 | 47 | 1013.7 |
| 20260902004547 | 90 | 107 | 0.0 | 3.0 | 0.00 | 0.00 | 0.00 | 47 | 1013.7 |
| 20260902004050 | 90 | 107 | 0.0 | 3.0 | 0.00 | 0.00 | 0.00 | 46 | 1013.7 |
| 20260902003545 | 90 | 107 | 0.0 | 5.0 | 0.00 | 0.00 | 0.00 | 45 | 1013.8 |
| 20260902003046 | 90 | 107 | 2.0 | 5.0 | 0.00 | 0.00 | 0.00 | 45 | 1013.9 |
| 20260902002544 | 91 | 107 | 2.0 | 5.0 | 0.00 | 0.00 | 0.00 | 44 | 1013.8 |
| 20260902002045 | 91 | 107 | 0.0 | 4.0 | 0.00 | 0.00 | 0.00 | 44 | 1013.8 |
| 20260902001553 | 91 | 107 | 1.0 | 4.0 | 0.00 | 0.00 | 0.00 | 43 | 1013.8 |
| 20260902001044 | 91 | 107 | 1.0 | 9.0 | 0.00 | 0.00 | 0.00 | 43 | 1013.8 |
| 20260902000544 | 91 | 107 | 2.0 | 9.0 | 0.00 | 0.00 | 0.00 | 42 | 1013.7 |
| 20260902000046 | 92 | 111 | 2.0 | 5.0 | 0.00 | 0.00 | 0.00 | 42 | 1013.7 |
| 20260901235544 | 92 | 111 | 0.0 | 3.0 | 0.00 | 0.00 | 0.00 | 42 | 1013.9 |
| 20260901235043 | 92 | 111 | 1.0 | 4.0 | 0.00 | 0.00 | 0.00 | 41 | 1013.9 |
| 20260901234544 | 92 | 111 | 0.0 | 4.0 | 0.00 | 0.00 | 0.00 | 40 | 1013.8 |
| 20260901234043 | 92 | 111 | 0.0 | 2.0 | 0.00 | 0.00 | 0.00 | 40 | 1013.8 |
| 20260901233543 | 92 | 111 | 0.0 | 5.0 | 0.00 | 0.00 | 0.00 | 40 | 1013.8 |
| 20260901233056 | 93 | 111 | 1.0 | 5.0 | 0.00 | 0.00 | 0.00 | 39 | 1013.8 |
| 20260901232542 | 93 | 113 | 0.0 | 4.0 | 0.00 | 0.00 | 0.00 | 38 | 1013.8 |
| 20260901232042 | 93 | 113 | 1.0 | 4.0 | 0.00 | 0.00 | 0.00 | 39 | 1013.9 |
| 20260901231544 | 93 | 113 | 0.0 | 5.0 | 0.00 | 0.00 | 0.00 | 38 | 1013.9 |
| 20260901231042 | 93 | 113 | 1.0 | 11.0 | 0.00 | 0.00 | 0.00 | 39 | 1013.9 |
| 20260901230542 | 93 | 90 | 4.0 | 11.0 | 0.00 | 0.00 | 0.00 | 39 | 1013.8 |
| 20260901230042 | 93 | 93 | 3.0 | 8.0 | 0.00 | 0.00 | 0.00 | 39 | 1013.9 |
| 20260901225542 | 94 | 94 | 1.0 | 5.0 | 0.00 | 0.00 | 0.00 | 38 | 1013.8 |
| 20260901225040 | 94 | 94 | 0.0 | 5.0 | 0.00 | 0.00 | 0.00 | 39 | 1014.0 |
| 20260901224541 | 94 | 94 | 1.0 | 6.0 | 0.00 | 0.00 | 0.00 | 39 | 1014.0 |
| 20260901224039 | 94 | 94 | 1.0 | 7.0 | 0.00 | 0.00 | 0.00 | 39 | 1014.0 |
| 20260901223539 | 94 | 93 | 2.0 | 5.0 | 0.00 | 0.00 | 0.00 | 39 | 1014.0 |
| 20260901223043 | 94 | 92 | 0.0 | 3.0 | 0.00 | 0.00 | 0.00 | 38 | 1013.9 |
| 20260901222537 | 94 | 92 | 0.0 | 8.0 | 0.00 | 0.00 | 0.00 | 38 | 1013.9 |
| 20260901222038 | 95 | 92 | 1.0 | 8.0 | 0.00 | 0.00 | 0.00 | 36 | 1013.9 |
| 20260901221538 | 95 | 93 | 2.0 | 7.0 | 0.00 | 0.00 | 0.00 | 36 | 1014.0 |
| 20260901221037 | 96 | 90 | 3.0 | 7.0 | 0.00 | 0.00 | 0.00 | 38 | 1014.0 |
| 20260901220537 | 96 | 87 | 3.0 | 7.0 | 0.00 | 0.00 | 0.00 | 38 | 1014.0 |
| 20260901215536 | 95 | 85 | 1.0 | 7.0 | 0.00 | 0.00 | 0.00 | 38 | 1014.0 |
| 20260901215035 | 96 | 84 | 0.0 | 10.0 | 0.00 | 0.00 | 0.00 | 36 | 1014.1 |
| 20260901214536 | 96 | 95 | 1.0 | 9.0 | 0.00 | 0.00 | 0.00 | 37 | 1014.1 |
| 20260901214035 | 97 | 95 | 4.0 | 9.0 | 0.00 | 0.00 | 0.00 | 36 | 1014.1 |
| 20260901213536 | 97 | 110 | 0.0 | 8.0 | 0.00 | 0.00 | 0.00 | 36 | 1014.1 |
| 20260901213034 | 97 | 77 | 3.0 | 8.0 | 0.00 | 0.00 | 0.00 | 38 | 1014.1 |
| 20260901212532 | 98 | 85 | 1.0 | 8.0 | 0.00 | 0.00 | 0.00 | 35 | 1014.2 |
| 20260901212034 | 97 | 79 | 1.0 | 5.0 | 0.00 | 0.00 | 0.00 | 36 | 1014.3 |
| 20260901211537 | 97 | 94 | 0.0 | 8.0 | 0.00 | 0.00 | 0.00 | 33 | 1014.3 |
| 20260901211031 | 97 | 84 | 1.0 | 8.0 | 0.00 | 0.00 | 0.00 | 35 | 1014.4 |
| 20260901210530 | 98 | 130 | 1.0 | 7.0 | 0.00 | 0.00 | 0.00 | 36 | 1014.4 |
| 20260901210031 | 98 | 130 | 2.0 | 9.0 | 0.00 | 0.00 | 0.00 | 33 | 1014.4 |
| 20260901205533 | 98 | 122 | 1.0 | 7.0 | 0.00 | 0.00 | 0.00 | 33 | 1014.5 |
| 20260901205028 | 97 | 129 | 2.0 | 6.0 | 0.00 | 0.00 | 0.00 | 35 | 1014.6 |
| 20260901204527 | 98 | 105 | 2.0 | 5.0 | 0.00 | 0.00 | 0.00 | 35 | 1014.8 |
| 20260901204026 | 97 | 105 | 0.0 | 3.0 | 0.00 | 0.00 | 0.00 | 37 | 1014.8 |
| 20260901203529 | 97 | 105 | 0.0 | 8.0 | 0.00 | 0.00 | 0.00 | 36 | 1014.8 |
| 20260901203034 | 97 | 105 | 2.0 | 8.0 | 0.00 | 0.00 | 0.00 | 36 | 1015.0 |
| 20260901202524 | 97 | 102 | 1.0 | 10.0 | 0.00 | 0.00 | 0.00 | 36 | 1015.0 |
| 20260901202023 | 97 | 98 | 2.0 | 10.0 | 0.00 | 0.00 | 0.00 | 38 | 1015.1 |
| 20260901201523 | 97 | 116 | 2.0 | 7.0 | 0.00 | 0.00 | 0.00 | 38 | 1015.2 |
| 20260901201022 | 95 | 100 | 2.0 | 7.0 | 0.00 | 0.00 | 0.00 | 40 | 1015.3 |
| 20260901200523 | 95 | 101 | 0.0 | 9.0 | 0.00 | 0.00 | 0.00 | 38 | 1015.3 |
| 20260901200020 | 97 | 103 | 2.0 | 9.0 | 0.00 | 0.00 | 0.00 | 37 | 1015.5 |
| 20260901195520 | 97 | 93 | 2.0 | 7.0 | 0.00 | 0.00 | 0.00 | 38 | 1015.5 |
| 20260901195023 | 97 | 100 | 3.0 | 7.0 | 0.00 | 0.00 | 0.00 | 37 | 1015.6 |
| 20260901194518 | 97 | 100 | 0.0 | 7.0 | 0.00 | 0.00 | 0.00 | 38 | 1015.6 |
| 20260901194018 | 96 | 100 | 2.0 | 7.0 | 0.00 | 0.00 | 0.00 | 38 | 1015.7 |
| 20260901193517 | 96 | 101 | 1.0 | 10.0 | 0.00 | 0.00 | 0.00 | 39 | 1015.7 |
| 20260901193016 | 96 | 344 | 2.0 | 10.0 | 0.00 | 0.00 | 0.00 | 37 | 1015.8 |
| 20260901192515 | 97 | 105 | 2.0 | 7.0 | 0.00 | 0.00 | 0.00 | 39 | 1015.8 |
| 20260901192015 | 96 | 105 | 1.0 | 5.0 | 0.00 | 0.00 | 0.00 | 40 | 1015.8 |
| 20260901191514 | 96 | 105 | 1.0 | 4.0 | 0.00 | 0.00 | 0.00 | 40 | 1015.9 |
| 20260901191013 | 96 | 105 | 1.0 | 7.0 | 0.00 | 0.00 | 0.00 | 39 | 1015.9 |
| 20260901190513 | 96 | 105 | 1.0 | 7.0 | 0.00 | 0.00 | 0.00 | 39 | 1016.0 |
| 20260901190013 | 97 | 108 | 0.0 | 7.0 | 0.00 | 0.00 | 0.00 | 37 | 1016.1 |
| 20260901185515 | 97 | 108 | 1.0 | 7.0 | 0.00 | 0.00 | 0.00 | 37 | 1016.2 |
| 20260901185018 | 96 | 111 | 2.0 | 8.0 | 0.00 | 0.00 | 0.00 | 40 | 1016.3 |
| 20260901184511 | 96 | 112 | 1.0 | 9.0 | 0.00 | 0.00 | 0.00 | 39 | 1016.4 |
| 20260901184010 | 97 | 113 | 3.0 | 9.0 | 0.00 | 0.00 | 0.00 | 39 | 1016.5 |
| 20260901183509 | 96 | 101 | 1.0 | 7.0 | 0.00 | 0.00 | 0.00 | 40 | 1016.5 |
| 20260901183007 | 96 | 102 | 2.0 | 9.0 | 0.00 | 0.00 | 0.00 | 40 | 1016.5 |
| 20260901182506 | 96 | 97 | 3.0 | 10.0 | 0.00 | 0.00 | 0.00 | 39 | 1016.5 |
| 20260901182006 | 95 | 94 | 2.0 | 10.0 | 0.00 | 0.00 | 0.00 | 43 | 1016.6 |
| 20260901181511 | 94 | 124 | 2.0 | 7.0 | 0.00 | 0.00 | 0.00 | 42 | 1016.8 |
| 20260901181006 | 95 | 126 | 0.0 | 7.0 | 0.00 | 0.00 | 0.00 | 40 | 1016.9 |
| 20260901180504 | 95 | 126 | 2.0 | 7.0 | 0.00 | 0.00 | 0.00 | 42 | 1017.0 |
| 20260901180002 | 94 | 125 | 0.0 | 3.0 | 0.00 | 0.00 | 0.00 | 44 | 1017.0 |
| 20260901175502 | 94 | 125 | 0.0 | 7.0 | 0.00 | 0.00 | 0.00 | 41 | 1017.1 |
| 20260901175000 | 94 | 125 | 3.0 | 9.0 | 0.00 | 0.00 | 0.00 | 42 | 1017.2 |
| 20260901174600 | 94 | 127 | 2.0 | 9.0 | 0.00 | 0.00 | 0.00 | 42 | 1017.3 |
| 20260901174059 | 93 | 131 | 1.0 | 5.0 | 0.00 | 0.00 | 0.00 | 44 | 1017.3 |
| 20260901173558 | 93 | 132 | 0.0 | 9.0 | 0.00 | 0.00 | 0.00 | 43 | 1017.3 |
| 20260901173057 | 93 | 132 | 1.0 | 9.0 | 0.00 | 0.00 | 0.00 | 44 | 1017.4 |
| 20260901172556 | 93 | 106 | 0.0 | 9.0 | 0.00 | 0.00 | 0.00 | 44 | 1017.5 |
| 20260901172055 | 93 | 104 | 0.0 | 7.0 | 0.00 | 0.00 | 0.00 | 44 | 1017.5 |
| 20260901171555 | 93 | 104 | 1.0 | 7.0 | 0.00 | 0.00 | 0.00 | 42 | 1017.6 |
| 20260901171053 | 93 | 104 | 1.0 | 9.0 | 0.00 | 0.00 | 0.00 | 44 | 1017.7 |
| 20260901170552 | 92 | 105 | 1.0 | 9.0 | 0.00 | 0.00 | 0.00 | 46 | 1017.7 |
| 20260901170110 | 92 | 114 | 1.0 | 9.0 | 0.00 | 0.00 | 0.00 | 46 | 1017.6 |
| 20260901165549 | 91 | 112 | 2.0 | 9.0 | 0.00 | 0.00 | 0.00 | 46 | 1017.7 |
| 20260901165048 | 91 | 112 | 0.0 | 4.0 | 0.00 | 0.00 | 0.00 | 48 | 1017.7 |
| 20260901164549 | 90 | 112 | 0.0 | 4.0 | 0.00 | 0.00 | 0.00 | 48 | 1017.7 |
| 20260901164045 | 91 | 108 | 0.0 | 7.0 | 0.00 | 0.00 | 0.00 | 47 | 1017.8 |
| 20260901163543 | 91 | 108 | 1.0 | 11.0 | 0.00 | 0.00 | 0.00 | 47 | 1017.9 |
| 20260901163043 | 90 | 89 | 2.0 | 11.0 | 0.00 | 0.00 | 0.00 | 51 | 1017.9 |
| 20260901162540 | 90 | 92 | 0.0 | 6.0 | 0.00 | 0.00 | 0.00 | 52 | 1017.9 |
| 20260901162039 | 89 | 92 | 1.0 | 8.0 | 0.00 | 0.00 | 0.00 | 52 | 1018.0 |
| 20260901161539 | 89 | 88 | 3.0 | 8.0 | 0.00 | 0.00 | 0.00 | 50 | 1018.0 |
| 20260901161037 | 89 | 88 | 2.0 | 9.0 | 0.00 | 0.00 | 0.00 | 53 | 1018.0 |
| 20260901160538 | 88 | 89 | 3.0 | 9.0 | 0.00 | 0.00 | 0.00 | 55 | 1018.1 |
| 20260901160039 | 88 | 91 | 0.0 | 8.0 | 0.00 | 0.00 | 0.00 | 56 | 1018.0 |
| 20260901155533 | 88 | 91 | 4.0 | 8.0 | 0.00 | 0.00 | 0.00 | 58 | 1018.1 |
| 20260901155032 | 87 | 107 | 0.0 | 8.0 | 0.00 | 0.00 | 0.00 | 57 | 1017.9 |
| 20260901154532 | 87 | 109 | 1.0 | 8.0 | 0.00 | 0.00 | 0.00 | 58 | 1017.9 |
| 20260901154030 | 86 | 128 | 0.0 | 4.0 | 0.00 | 0.00 | 0.00 | 59 | 1017.9 |
| 20260901153528 | 86 | 128 | 2.0 | 4.0 | 0.00 | 0.00 | 0.00 | 58 | 1018.0 |
| 20260901153027 | 86 | 129 | 0.0 | 3.0 | 0.00 | 0.00 | 0.00 | 58 | 1017.9 |
| 20260901152526 | 85 | 129 | 0.0 | 5.0 | 0.00 | 0.00 | 0.00 | 57 | 1017.9 |
| 20260901152028 | 85 | 129 | 2.0 | 5.0 | 0.00 | 0.00 | 0.00 | 60 | 1017.9 |
| 20260901151524 | 84 | 128 | 1.0 | 4.0 | 0.00 | 0.00 | 0.00 | 61 | 1017.9 |
| 20260901151023 | 84 | 129 | 1.0 | 3.0 | 0.00 | 0.00 | 0.00 | 64 | 1017.9 |
| 20260901150521 | 83 | 129 | 0.0 | 3.0 | 0.00 | 0.00 | 0.00 | 64 | 1017.9 |
| 20260901150020 | 83 | 129 | 1.0 | 6.0 | 0.00 | 0.00 | 0.00 | 67 | 1017.9 |
| 20260901145518 | 83 | 129 | 1.0 | 6.0 | 0.00 | 0.00 | 0.00 | 65 | 1017.9 |
| 20260901145018 | 82 | 128 | 0.0 | 5.0 | 0.00 | 0.00 | 0.00 | 66 | 1017.9 |
| 20260901144516 | 82 | 128 | 1.0 | 5.0 | 0.00 | 0.00 | 0.00 | 68 | 1017.9 |
| 20260901144016 | 81 | 129 | 0.0 | 2.0 | 0.00 | 0.00 | 0.00 | 70 | 1018.0 |
| 20260901143515 | 80 | 129 | 0.0 | 3.0 | 0.00 | 0.00 | 0.00 | 70 | 1018.0 |
| 20260901143014 | 80 | 129 | 1.0 | 3.0 | 0.00 | 0.00 | 0.00 | 70 | 1017.8 |
| 20260901142513 | 79 | 129 | 0.0 | 4.0 | 0.00 | 0.00 | 0.00 | 70 | 1017.8 |
| 20260901142012 | 79 | 129 | 1.0 | 5.0 | 0.00 | 0.00 | 0.00 | 71 | 1017.8 |
| 20260901141510 | 79 | 129 | 0.0 | 5.0 | 0.00 | 0.00 | 0.00 | 71 | 1017.8 |
| 20260901141010 | 78 | 129 | 0.0 | 2.0 | 0.00 | 0.00 | 0.00 | 71 | 1017.8 |
| 20260901140509 | 78 | 129 | 0.0 | 4.0 | 0.00 | 0.00 | 0.00 | 71 | 1017.8 |
| 20260901140010 | 78 | 129 | 0.0 | 4.0 | 0.00 | 0.00 | 0.00 | 70 | 1017.9 |
| 20260901135508 | 77 | 129 | 1.0 | 3.0 | 0.00 | 0.00 | 0.00 | 68 | 1017.9 |
| 20260901135007 | 77 | 129 | 0.0 | 1.0 | 0.00 | 0.00 | 0.00 | 62 | 1017.9 |
| 20260901134506 | 76 | 129 | 0.0 | 0.0 | 0.00 | 0.00 | 0.00 | 61 | 1017.8 |
| 20260901134009 | 76 | 129 | 0.0 | 1.0 | 0.00 | 0.00 | 0.00 | 59 | 1017.7 |
| 20260901133503 | 76 | 129 | 0.0 | 1.0 | 0.00 | 0.00 | 0.00 | 59 | 1017.7 |
| 20260901133007 | 76 | 129 | 0.0 | 0.0 | 0.00 | 0.00 | 0.00 | 59 | 1017.7 |
| 20260901132501 | 75 | 129 | 0.0 | 0.0 | 0.00 | 0.00 | 0.00 | 59 | 1017.8 |
| 20260901132103 | 75 | 129 | 0.0 | 0.0 | 0.00 | 0.00 | 0.00 | 59 | 1017.7 |
| 20260901131602 | 75 | 129 | 0.0 | 0.0 | 0.00 | 0.00 | 0.00 | 60 | 1017.7 |
| 20260901131103 | 75 | 129 | 0.0 | 0.0 | 0.00 | 0.00 | 0.00 | 60 | 1017.7 |
| 20260901130558 | 75 | 129 | 0.0 | 0.0 | 0.00 | 0.00 | 0.00 | 61 | 1017.6 |
| 20260901130057 | 75 | 129 | 0.0 | 0.0 | 0.00 | 0.00 | 0.00 | 62 | 1017.6 |
| 20260901125556 | 74 | 129 | 0.0 | 0.0 | 0.00 | 0.00 | 0.00 | 63 | 1017.5 |
| 20260901125056 | 74 | 129 | 0.0 | 0.0 | 0.00 | 0.00 | 0.00 | 63 | 1017.4 |
| 20260901124604 | 74 | 129 | 0.0 | 0.0 | 0.00 | 0.00 | 0.00 | 64 | 1017.3 |
| 20260901124055 | 74 | 129 | 0.0 | 1.0 | 0.00 | 0.00 | 0.00 | 64 | 1017.3 |
| 20260901123556 | 74 | 129 | 0.0 | 1.0 | 0.00 | 0.00 | 0.00 | 64 | 1017.3 |
| 20260901123053 | 74 | 129 | 0.0 | 0.0 | 0.00 | 0.00 | 0.00 | 64 | 1017.2 |
| 20260901122553 | 75 | 129 | 0.0 | 0.0 | 0.00 | 0.00 | 0.00 | 64 | 1017.1 |
| 20260901122052 | 75 | 129 | 0.0 | 0.0 | 0.00 | 0.00 | 0.00 | 65 | 1017.1 |
| 20260901121602 | 75 | 129 | 0.0 | 0.0 | 0.00 | 0.00 | 0.00 | 65 | 1017.1 |
| 20260901121051 | 75 | 129 | 0.0 | 0.0 | 0.00 | 0.00 | 0.00 | 65 | 1017.1 |
| 20260901120554 | 75 | 129 | 0.0 | 0.0 | 0.00 | 0.00 | 0.00 | 66 | 1017.0 |
| 20260901120050 | 75 | 129 | 0.0 | 0.0 | 0.00 | 0.00 | 0.00 | 66 | 1017.0 |
| 20260901115552 | 75 | 129 | 0.0 | 0.0 | 0.00 | 0.00 | 0.00 | 66 | 1017.0 |
| 20260901115049 | 75 | 129 | 0.0 | 0.0 | 0.00 | 0.00 | 0.00 | 66 | 1017.1 |
| 20260901114549 | 75 | 129 | 0.0 | 0.0 | 0.00 | 0.00 | 0.00 | 67 | 1017.2 |
| 20260901114048 | 75 | 129 | 0.0 | 0.0 | 0.00 | 0.00 | 0.00 | 67 | 1017.2 |
| 20260901113549 | 75 | 129 | 0.0 | 0.0 | 0.00 | 0.00 | 0.00 | 67 | 1017.3 |
| 20260901113056 | 75 | 129 | 0.0 | 0.0 | 0.00 | 0.00 | 0.00 | 67 | 1017.2 |
| 20260901112548 | 75 | 129 | 0.0 | 0.0 | 0.00 | 0.00 | 0.00 | 67 | 1017.3 |
| 20260901112047 | 75 | 129 | 0.0 | 0.0 | 0.00 | 0.00 | 0.00 | 67 | 1017.2 |
| 20260901111547 | 75 | 129 | 0.0 | 0.0 | 0.00 | 0.00 | 0.00 | 67 | 1017.3 |
| 20260901111046 | 75 | 129 | 0.0 | 0.0 | 0.00 | 0.00 | 0.00 | 67 | 1017.2 |
| 20260901110548 | 75 | 129 | 0.0 | 2.0 | 0.00 | 0.00 | 0.00 | 67 | 1017.2 |
| 20260901110049 | 75 | 129 | 0.0 | 2.0 | 0.00 | 0.00 | 0.00 | 68 | 1017.1 |
| 20260901105546 | 75 | 129 | 0.0 | 1.0 | 0.00 | 0.00 | 0.00 | 68 | 1017.1 |
| 20260901105046 | 75 | 129 | 0.0 | 0.0 | 0.00 | 0.00 | 0.00 | 69 | 1017.3 |
| 20260901104553 | 75 | 129 | 0.0 | 2.0 | 0.00 | 0.00 | 0.00 | 69 | 1017.3 |
| 20260901104045 | 75 | 129 | 0.0 | 2.0 | 0.00 | 0.00 | 0.00 | 69 | 1017.3 |
| 20260901103544 | 75 | 129 | 0.0 | 0.0 | 0.00 | 0.00 | 0.00 | 69 | 1017.3 |
| 20260901103044 | 76 | 129 | 0.0 | 1.0 | 0.00 | 0.00 | 0.00 | 69 | 1017.2 |
| 20260901102544 | 76 | 129 | 0.0 | 1.0 | 0.00 | 0.00 | 0.00 | 70 | 1017.2 |
| 20260901102043 | 76 | 129 | 0.0 | 0.0 | 0.00 | 0.00 | 0.00 | 70 | 1017.1 |
| 20260901101543 | 76 | 129 | 0.0 | 0.0 | 0.00 | 0.00 | 0.00 | 70 | 1017.1 |
| 20260901101043 | 76 | 129 | 0.0 | 0.0 | 0.00 | 0.00 | 0.00 | 70 | 1017.1 |
| 20260901100542 | 76 | 129 | 0.0 | 0.0 | 0.00 | 0.00 | 0.00 | 70 | 1017.0 |
| 20260901100050 | 76 | 129 | 0.0 | 0.0 | 0.00 | 0.00 | 0.00 | 70 | 1016.9 |
| 20260901095541 | 76 | 129 | 0.0 | 0.0 | 0.00 | 0.00 | 0.00 | 71 | 1017.0 |
| 20260901095041 | 76 | 129 | 0.0 | 0.0 | 0.00 | 0.00 | 0.00 | 71 | 1017.0 |
| 20260901094541 | 76 | 129 | 0.0 | 0.0 | 0.00 | 0.00 | 0.00 | 71 | 1017.0 |
| 20260901094044 | 76 | 129 | 0.0 | 0.0 | 0.00 | 0.00 | 0.00 | 71 | 1017.0 |
| 20260901093540 | 77 | 129 | 0.0 | 1.0 | 0.00 | 0.00 | 0.00 | 71 | 1017.0 |
| 20260901093040 | 77 | 129 | 0.0 | 1.0 | 0.00 | 0.00 | 0.00 | 71 | 1017.1 |
| 20260901092539 | 77 | 129 | 0.0 | 2.0 | 0.00 | 0.00 | 0.00 | 71 | 1017.0 |
| 20260901092040 | 77 | 129 | 0.0 | 2.0 | 0.00 | 0.00 | 0.00 | 71 | 1017.1 |
| 20260901091539 | 77 | 129 | 0.0 | 1.0 | 0.00 | 0.00 | 0.00 | 71 | 1017.2 |
| 20260901091039 | 77 | 129 | 0.0 | 1.0 | 0.00 | 0.00 | 0.00 | 71 | 1017.3 |
| 20260901090538 | 77 | 129 | 0.0 | 1.0 | 0.00 | 0.00 | 0.00 | 71 | 1017.4 |
| 20260901090038 | 77 | 129 | 0.0 | 3.0 | 0.00 | 0.00 | 0.00 | 71 | 1017.4 |
| 20260901085538 | 77 | 129 | 0.0 | 4.0 | 0.00 | 0.00 | 0.00 | 71 | 1017.5 |
| 20260901085038 | 77 | 129 | 0.0 | 4.0 | 0.00 | 0.00 | 0.00 | 71 | 1017.4 |
| 20260901084553 | 77 | 129 | 0.0 | 4.0 | 0.00 | 0.00 | 0.00 | 71 | 1017.5 |
| 20260901084038 | 77 | 129 | 1.0 | 4.0 | 0.00 | 0.00 | 0.00 | 71 | 1017.4 |
| 20260901083538 | 77 | 129 | 0.0 | 2.0 | 0.00 | 0.00 | 0.00 | 72 | 1017.4 |
| 20260901083037 | 77 | 129 | 0.0 | 2.0 | 0.00 | 0.00 | 0.00 | 72 | 1017.4 |
| 20260901082535 | 77 | 129 | 0.0 | 3.0 | 0.00 | 0.00 | 0.00 | 72 | 1017.3 |
| 20260901082035 | 77 | 129 | 0.0 | 3.0 | 0.00 | 0.00 | 0.00 | 72 | 1017.3 |
| 20260901081534 | 77 | 129 | 1.0 | 5.0 | 0.00 | 0.00 | 0.00 | 72 | 1017.3 |
| 20260901081036 | 77 | 129 | 0.0 | 5.0 | 0.00 | 0.00 | 0.00 | 71 | 1017.3 |
| 20260901080534 | 77 | 129 | 0.0 | 2.0 | 0.00 | 0.00 | 0.00 | 71 | 1017.2 |
| 20260901080034 | 77 | 129 | 0.0 | 2.0 | 0.00 | 0.00 | 0.00 | 71 | 1017.2 |
| 20260901075532 | 77 | 129 | 0.0 | 2.0 | 0.00 | 0.00 | 0.00 | 71 | 1017.3 |
| 20260901075035 | 77 | 129 | 0.0 | 2.0 | 0.00 | 0.00 | 0.00 | 71 | 1017.3 |
| 20260901074534 | 77 | 129 | 0.0 | 3.0 | 0.00 | 0.00 | 0.00 | 71 | 1017.3 |
| 20260901074034 | 78 | 129 | 1.0 | 3.0 | 0.00 | 0.00 | 0.00 | 71 | 1017.1 |
| 20260901073531 | 78 | 129 | 1.0 | 3.0 | 0.00 | 0.00 | 0.00 | 71 | 1017.1 |
| 20260901073032 | 78 | 129 | 0.0 | 4.0 | 0.00 | 0.00 | 0.00 | 70 | 1017.2 |
| 20260901072533 | 78 | 129 | 1.0 | 3.0 | 0.00 | 0.00 | 0.00 | 70 | 1017.3 |
| 20260901072030 | 78 | 129 | 1.0 | 4.0 | 0.00 | 0.00 | 0.00 | 70 | 1017.3 |
| 20260901071532 | 78 | 129 | 1.0 | 4.0 | 0.00 | 0.00 | 0.00 | 70 | 1017.3 |
| 20260901071029 | 78 | 129 | 0.0 | 4.0 | 0.00 | 0.00 | 0.00 | 70 | 1017.2 |